• In Uzbekistan
  • List of Countries
  • For 7 days
  • Water Temperature
  • Satellite Maps
  • Weather Map
  • Weather Widgets
  • user-avatar
    Login

    Hourly Weather Sanoka

    Today, 22 July, Sunday

    Time Temperature Precipitation Wind Pressure Humidity
    00:00 +19°C° 0 mm 1 mps 742 mmHg 75%
    01:00 +19°C° 0 mm 1 mps 742 mmHg 79%
    02:00 +19°C° 0 mm 1 mps 742 mmHg 81%
    03:00 +18°C° 0 mm 1 mps 742 mmHg 83%
    04:00 +18°C° 0 mm 1 mps 742 mmHg 85%
    05:00 +20°C° 0 mm 1 mps 742 mmHg 80%
    06:00 +21°C° 0 mm 1 mps 742 mmHg 75%
    07:00 +23°C° 0 mm 1 mps 742 mmHg 71%
    08:00 +24°C° 0.1 mm 1 mps 742 mmHg 68%
    09:00 +26°C° 0.1 mm 1 mps 741 mmHg 65%
    10:00 +27°C° 0.1 mm 2 mps 741 mmHg 62%
    11:00 +28°C° 0.5 mm 2 mps 741 mmHg 60%
    12:00 +28°C° 0.5 mm 2 mps 741 mmHg 58%
    13:00 +29°C° 0 mm 2 mps 741 mmHg 53%
    14:00 +29°C° 0.3 mm 2 mps 741 mmHg 54%
    15:00 +29°C° 0.3 mm 2 mps 741 mmHg 56%
    16:00 +28°C° 0.3 mm 2 mps 741 mmHg 57%
    17:00 +27°C° 0.2 mm 2 mps 741 mmHg 62%
    18:00 +26°C° 0.2 mm 2 mps 741 mmHg 68%
    19:00 +24°C° 0.2 mm 2 mps 741 mmHg 73%
    20:00 +23°C° 0.1 mm 2 mps 741 mmHg 75%
    21:00 +22°C° 0.1 mm 1 mps 741 mmHg 76%
    22:00 +22°C° 0.1 mm 1 mps 742 mmHg 77%
    23:00 +21°C° 0 mm 1 mps 742 mmHg 79%

    Tomorrow, 23 July, Monday

    Time Temperature Precipitation Wind Pressure Humidity
    00:00 +20°C° 0 mm 1 mps 742 mmHg 81%
    01:00 +20°C° 0 mm 1 mps 742 mmHg 82%
    02:00 +20°C° 0 mm 1 mps 742 mmHg 84%
    03:00 +19°C° 0 mm 1 mps 742 mmHg 85%
    04:00 +19°C° 0 mm 1 mps 742 mmHg 87%
    05:00 +20°C° 0 mm 1 mps 742 mmHg 84%
    06:00 +20°C° 0 mm 2 mps 742 mmHg 81%
    07:00 +23°C° 0 mm 2 mps 742 mmHg 78%
    08:00 +24°C° 0.2 mm 2 mps 742 mmHg 73%
    09:00 +25°C° 0.2 mm 3 mps 742 mmHg 68%
    10:00 +26°C° 0.2 mm 4 mps 742 mmHg 63%
    11:00 +27°C° 0.3 mm 4 mps 742 mmHg 62%
    12:00 +27°C° 0.3 mm 4 mps 742 mmHg 60%
    13:00 +28°C° 0.3 mm 5 mps 742 mmHg 58%
    14:00 +28°C° 0.4 mm 5 mps 742 mmHg 60%
    15:00 +28°C° 0.4 mm 4 mps 742 mmHg 62%
    16:00 +28°C° 0.4 mm 4 mps 742 mmHg 64%
    17:00 +26°C° 0.3 mm 4 mps 742 mmHg 68%
    18:00 +25°C° 0.3 mm 4 mps 742 mmHg 73%
    19:00 +22°C° 0.3 mm 3 mps 742 mmHg 78%
    20:00 +22°C° 0.2 mm 3 mps 742 mmHg 80%
    21:00 +21°C° 0.2 mm 3 mps 742 mmHg 82%
    22:00 +20°C° 0.2 mm 3 mps 743 mmHg 85%
    23:00 +20°C° 0.2 mm 3 mps 743 mmHg 87%

    Day after tomorrow, 24 July, Tuesday

    Time Temperature Precipitation Wind Pressure Humidity
    00:00 +19°C° 0.2 mm 3 mps 742 mmHg 89%
    01:00 +19°C° 0.2 mm 3 mps 742 mmHg 91%
    02:00 +18°C° 0 mm 3 mps 742 mmHg 92%
    03:00 +18°C° 0 mm 3 mps 742 mmHg 93%
    04:00 +18°C° 0 mm 3 mps 743 mmHg 94%
    05:00 +19°C° 0 mm 3 mps 743 mmHg 90%
    06:00 +20°C° 0 mm 4 mps 743 mmHg 86%
    07:00 +21°C° 0 mm 4 mps 743 mmHg 82%
    08:00 +22°C° 0.1 mm 4 mps 743 mmHg 77%
    09:00 +25°C° 0.1 mm 5 mps 743 mmHg 71%
    10:00 +26°C° 0.1 mm 5 mps 743 mmHg 65%
    11:00 +27°C° 0.1 mm 5 mps 743 mmHg 62%
    12:00 +27°C° 0.1 mm 5 mps 743 mmHg 59%
    13:00 +28°C° 0.1 mm 5 mps 742 mmHg 56%
    14:00 +28°C° 0.1 mm 5 mps 742 mmHg 57%
    15:00 +28°C° 0.1 mm 5 mps 742 mmHg 58%
    16:00 +28°C° 0.1 mm 5 mps 742 mmHg 59%
    17:00 +27°C° 0.1 mm 4 mps 742 mmHg 64%
    18:00 +25°C° 0.1 mm 4 mps 742 mmHg 69%
    19:00 +24°C° 0.1 mm 3 mps 742 mmHg 74%
    20:00 +22°C° 0 mm 3 mps 742 mmHg 77%
    21:00 +21°C° 0 mm 3 mps 742 mmHg 80%
    22:00 +20°C° 0 mm 2 mps 743 mmHg 82%
    23:00 +19°C° 0 mm 2 mps 743 mmHg 84%

    25 July, Wednesday

    Time Temperature Precipitation Wind Pressure Humidity
    00:00 +19°C° 0 mm 2 mps 742 mmHg 86%
    01:00 +18°C° 0 mm 2 mps 742 mmHg 88%
    02:00 +18°C° 0 mm 2 mps 743 mmHg 90%
    03:00 +18°C° 0 mm 2 mps 743 mmHg 92%
    04:00 +17°C° 0 mm 2 mps 743 mmHg 93%
    05:00 +19°C° 0 mm 2 mps 743 mmHg 89%
    06:00 +20°C° 0 mm 2 mps 743 mmHg 85%
    07:00 +21°C° 0 mm 3 mps 743 mmHg 80%
    08:00 +24°C° 0 mm 3 mps 743 mmHg 74%
    09:00 +25°C° 0 mm 3 mps 743 mmHg 68%
    10:00 +27°C° 0 mm 3 mps 743 mmHg 62%
    11:00 +27°C° 0.1 mm 3 mps 743 mmHg 60%
    12:00 +28°C° 0.1 mm 3 mps 742 mmHg 57%
    13:00 +29°C° 0.1 mm 3 mps 742 mmHg 55%
    14:00 +28°C° 0.3 mm 4 mps 742 mmHg 57%
    15:00 +28°C° 0.3 mm 4 mps 742 mmHg 59%
    16:00 +28°C° 0.3 mm 4 mps 742 mmHg 61%
    17:00 +27°C° 0.4 mm 3 mps 742 mmHg 68%
    18:00 +25°C° 0.4 mm 3 mps 742 mmHg 75%
    19:00 +24°C° 0.4 mm 2 mps 742 mmHg 82%
    20:00 +23°C° 0 mm 2 mps 742 mmHg 85%
    21:00 +21°C° 0 mm 2 mps 742 mmHg 88%
    22:00 +20°C° 0 mm 2 mps 742 mmHg 91%
    23:00 +20°C° 0 mm 2 mps 742 mmHg 92%

    26 July, Thursday

    Time Temperature Precipitation Wind Pressure Humidity
    00:00 +19°C° 0 mm 2 mps 742 mmHg 94%
    01:00 +19°C° 0 mm 2 mps 742 mmHg 95%
    02:00 +19°C° 0 mm 2 mps 742 mmHg 95%
    03:00 +20°C° 0 mm 1 mps 742 mmHg 95%
    04:00 +19°C° 0 mm 1 mps 742 mmHg 96%
    05:00 +20°C° 0 mm 1 mps 743 mmHg 93%
    06:00 +22°C° 0 mm 1 mps 743 mmHg 90%
    07:00 +23°C° 0 mm 1 mps 743 mmHg 88%
    08:00 +24°C° 0.4 mm 1 mps 743 mmHg 84%
    09:00 +25°C° 0.4 mm 2 mps 743 mmHg 79%
    10:00 +26°C° 0.4 mm 2 mps 743 mmHg 75%
    11:00 +27°C° 0.3 mm 2 mps 743 mmHg 70%
    12:00 +28°C° 0.3 mm 2 mps 743 mmHg 65%
    13:00 +29°C° 0.3 mm 2 mps 742 mmHg 61%
    14:00 +29°C° 0.1 mm 2 mps 742 mmHg 61%
    15:00 +29°C° 0.1 mm 2 mps 742 mmHg 61%
    16:00 +29°C° 0.1 mm 2 mps 742 mmHg 62%
    17:00 +28°C° 0.2 mm 1 mps 742 mmHg 67%
    18:00 +27°C° 0.2 mm 1 mps 742 mmHg 73%
    19:00 +25°C° 0.2 mm 1 mps 742 mmHg 78%
    20:00 +24°C° 0.1 mm 1 mps 742 mmHg 81%
    21:00 +24°C° 0.1 mm 1 mps 743 mmHg 84%
    22:00 +23°C° 0.1 mm 1 mps 743 mmHg 87%
    23:00 +22°C° 0 mm 1 mps 743 mmHg 88%

    27 July, Friday

    Time Temperature Precipitation Wind Pressure Humidity
    00:00 +22°C° 0 mm 1 mps 743 mmHg 90%
    01:00 +22°C° 0 mm 1 mps 743 mmHg 91%
    02:00 +21°C° 0 mm 1 mps 743 mmHg 92%
    03:00 +21°C° 0 mm 1 mps 743 mmHg 92%
    04:00 +21°C° 0 mm 1 mps 743 mmHg 93%
    05:00 +22°C° 0.1 mm 1 mps 743 mmHg 89%
    06:00 +23°C° 0.1 mm 1 mps 743 mmHg 86%
    07:00 +25°C° 0.1 mm 1 mps 743 mmHg 82%
    08:00 +26°C° 0 mm 1 mps 743 mmHg 76%
    09:00 +28°C° 0 mm 1 mps 743 mmHg 70%
    10:00 +27°C° 0 mm 0 mps 743 mmHg 64%
    11:00 +30°C° 0.2 mm 1 mps 743 mmHg 62%
    12:00 +31°C° 0.2 mm 1 mps 743 mmHg 59%
    13:00 +31°C° 0.2 mm 1 mps 742 mmHg 56%
    14:00 +31°C° 0.3 mm 1 mps 742 mmHg 57%
    15:00 +31°C° 0.3 mm 1 mps 742 mmHg 58%
    16:00 +31°C° 0.3 mm 1 mps 742 mmHg 59%
    17:00 +29°C° 0.8 mm 1 mps 742 mmHg 66%
    18:00 +28°C° 0.8 mm 1 mps 742 mmHg 73%
    19:00 +26°C° 0.8 mm 1 mps 742 mmHg 81%
    20:00 +25°C° 0 mm 1 mps 742 mmHg 83%
    21:00 +24°C° 0 mm 1 mps 742 mmHg 85%
    22:00 +21°C° 0 mm 0 mps 742 mmHg 88%
    23:00 +21°C° 0 mm 0 mps 742 mmHg 89%
    Show more